| time (UTC) | temp F | wind direction | speed MPH | gust MPH | rain 1hr in | rain 24hr in | rain mn in | humidity % | barometer mb |
| 20260503020700 | 50 | 92 | 0.0 | 0.0 | 0.00 | 0.07 | 0.07 | 34 | 1003.6 |
| 20260503015927 | 50 | 92 | 0.0 | 0.0 | 0.00 | 0.07 | 0.07 | 35 | 1003.7 |
| 20260503015415 | 50 | 92 | 0.0 | 0.0 | 0.00 | 0.07 | 0.07 | 35 | 1003.7 |
| 20260503014902 | 50 | 92 | 0.0 | 0.0 | 0.00 | 0.07 | 0.07 | 35 | 1003.7 |
| 20260503014349 | 50 | 92 | 0.0 | 0.0 | 0.00 | 0.07 | 0.07 | 34 | 1003.9 |
| 20260503013838 | 50 | 92 | 0.0 | 0.0 | 0.00 | 0.07 | 0.07 | 34 | 1003.9 |
| 20260503013326 | 50 | 92 | 0.0 | 0.0 | 0.00 | 0.07 | 0.07 | 33 | 1003.9 |
| 20260503013035 | 50 | 92 | 0.0 | 0.0 | 0.00 | 0.07 | 0.07 | 33 | 1004.0 |
| 20260503012305 | 50 | 92 | 0.0 | 0.0 | 0.00 | 0.07 | 0.07 | 34 | 1004.0 |
| 20260503011750 | 51 | 92 | 0.0 | 0.0 | 0.00 | 0.07 | 0.07 | 37 | 1004.0 |
| 20260503011237 | 51 | 92 | 0.0 | 0.0 | 0.00 | 0.07 | 0.07 | 35 | 1004.0 |
| 20260503010726 | 51 | 92 | 0.0 | 0.0 | 0.00 | 0.07 | 0.07 | 33 | 1004.0 |
| 20260503010214 | 51 | 92 | 0.0 | 0.0 | 0.00 | 0.07 | 0.07 | 34 | 1004.0 |
| 20260503005932 | 51 | 92 | 0.0 | 0.0 | 0.00 | 0.07 | 0.07 | 34 | 1004.2 |
| 20260503005148 | 51 | 92 | 0.0 | 0.0 | 0.00 | 0.07 | 0.07 | 34 | 1004.2 |
| 20260503004637 | 51 | 92 | 0.0 | 0.0 | 0.00 | 0.07 | 0.07 | 33 | 1004.2 |
| 20260503004353 | 51 | 92 | 0.0 | 0.0 | 0.00 | 0.07 | 0.07 | 34 | 1004.5 |
| 20260503003614 | 51 | 92 | 0.0 | 0.0 | 0.00 | 0.07 | 0.07 | 34 | 1004.5 |
| 20260503003104 | 51 | 92 | 0.0 | 0.0 | 0.00 | 0.07 | 0.07 | 35 | 1004.5 |
| 20260503002555 | 51 | 92 | 0.0 | 0.0 | 0.00 | 0.07 | 0.07 | 33 | 1004.7 |
| 20260503002049 | 51 | 92 | 0.0 | 0.0 | 0.00 | 0.07 | 0.07 | 34 | 1004.7 |
| 20260503001543 | 51 | 92 | 0.0 | 0.0 | 0.00 | 0.07 | 0.07 | 34 | 1004.7 |
| 20260503001038 | 51 | 92 | 0.0 | 0.0 | 0.00 | 0.07 | 0.07 | 34 | 1004.8 |
| 20260503000530 | 51 | 92 | 0.0 | 0.0 | 0.00 | 0.07 | 0.07 | 34 | 1004.8 |
| 20260503000023 | 51 | 92 | 0.0 | 0.0 | 0.00 | 0.07 | 0.07 | 34 | 1004.8 |
| 20260502235517 | 51 | 92 | 0.0 | 0.0 | 0.00 | 0.07 | 0.07 | 34 | 1005.2 |
| 20260502235011 | 51 | 92 | 0.0 | 0.0 | 0.00 | 0.07 | 0.07 | 37 | 1005.2 |
| 20260502234504 | 51 | 92 | 0.0 | 0.0 | 0.00 | 0.07 | 0.07 | 35 | 1005.2 |
| 20260502234219 | 51 | 92 | 0.0 | 0.0 | 0.00 | 0.07 | 0.07 | 34 | 1005.2 |
| 20260502233452 | 52 | 92 | 0.0 | 3.0 | 0.00 | 0.07 | 0.07 | 33 | 1005.2 |
| 20260502232948 | 52 | 92 | 0.0 | 3.0 | 0.00 | 0.07 | 0.07 | 32 | 1005.3 |
| 20260502232440 | 52 | 92 | 1.0 | 6.0 | 0.00 | 0.07 | 0.07 | 32 | 1005.3 |
| 20260502232153 | 52 | 92 | 2.0 | 6.0 | 0.00 | 0.07 | 0.07 | 32 | 1005.3 |
| 20260502231429 | 52 | 92 | 2.0 | 6.0 | 0.00 | 0.07 | 0.07 | 35 | 1005.3 |
| 20260502230925 | 52 | 92 | 2.0 | 6.0 | 0.00 | 0.07 | 0.07 | 32 | 1005.3 |
| 20260502230418 | 52 | 91 | 2.0 | 5.0 | 0.00 | 0.07 | 0.07 | 33 | 1005.3 |
| 20260502225912 | 51 | 91 | 3.0 | 7.0 | 0.00 | 0.07 | 0.07 | 33 | 1005.6 |
| 20260502225404 | 51 | 91 | 3.0 | 7.0 | 0.00 | 0.07 | 0.07 | 32 | 1005.6 |
| 20260502224854 | 52 | 91 | 3.0 | 7.0 | 0.00 | 0.07 | 0.07 | 32 | 1005.6 |
| 20260502224354 | 52 | 91 | 3.0 | 7.0 | 0.00 | 0.07 | 0.07 | 31 | 1005.8 |
| 20260502223847 | 52 | 87 | 3.0 | 9.0 | 0.00 | 0.07 | 0.07 | 30 | 1005.8 |
| 20260502223341 | 52 | 83 | 4.0 | 9.0 | 0.00 | 0.07 | 0.07 | 31 | 1005.8 |
| 20260502222836 | 52 | 93 | 5.0 | 9.0 | 0.00 | 0.07 | 0.07 | 32 | 1005.9 |
| 20260502222332 | 53 | 99 | 4.0 | 9.0 | 0.00 | 0.07 | 0.07 | 30 | 1005.9 |
| 20260502221823 | 53 | 99 | 3.0 | 7.0 | 0.00 | 0.07 | 0.07 | 32 | 1005.9 |
| 20260502221316 | 53 | 99 | 3.0 | 7.0 | 0.00 | 0.07 | 0.07 | 30 | 1006.1 |
| 20260502220811 | 53 | 114 | 2.0 | 6.0 | 0.00 | 0.07 | 0.07 | 30 | 1006.1 |
| 20260502220532 | 53 | 112 | 2.0 | 6.0 | 0.00 | 0.07 | 0.07 | 30 | 1006.1 |
| 20260502215754 | 53 | 104 | 2.0 | 6.0 | 0.00 | 0.07 | 0.07 | 32 | 1006.3 |
| 20260502215253 | 52 | 91 | 3.0 | 6.0 | 0.00 | 0.07 | 0.07 | 30 | 1006.3 |
| 20260502214746 | 53 | 92 | 3.0 | 6.0 | 0.01 | 0.07 | 0.07 | 30 | 1006.3 |
| 20260502214459 | 53 | 91 | 1.0 | 8.0 | 0.01 | 0.07 | 0.07 | 30 | 1006.4 |
| 20260502213735 | 53 | 104 | 2.0 | 8.0 | 0.01 | 0.07 | 0.07 | 30 | 1006.4 |
| 20260502213228 | 53 | 104 | 3.0 | 8.0 | 0.01 | 0.07 | 0.07 | 30 | 1006.4 |
| 20260502212722 | 53 | 104 | 3.0 | 8.0 | 0.01 | 0.07 | 0.07 | 29 | 1006.8 |
| 20260502212218 | 53 | 90 | 2.0 | 7.0 | 0.01 | 0.07 | 0.07 | 32 | 1006.8 |
| 20260502211710 | 53 | 89 | 2.0 | 7.0 | 0.01 | 0.07 | 0.07 | 32 | 1006.8 |
| 20260502211206 | 52 | 88 | 3.0 | 8.0 | 0.01 | 0.07 | 0.07 | 31 | 1006.9 |
| 20260502210652 | 52 | 103 | 3.0 | 8.0 | 0.01 | 0.07 | 0.07 | 29 | 1006.9 |
| 20260502210154 | 52 | 106 | 4.0 | 9.0 | 0.01 | 0.07 | 0.07 | 32 | 1006.9 |
| 20260502205647 | 53 | 97 | 3.0 | 9.0 | 0.01 | 0.07 | 0.07 | 30 | 1007.1 |
| 20260502205410 | 53 | 106 | 3.0 | 9.0 | 0.00 | 0.06 | 0.07 | 31 | 1007.1 |
| 20260502204854 | 53 | 93 | 3.0 | 9.0 | 0.00 | 0.06 | 0.06 | 32 | 1007.1 |
| 20260502204350 | 53 | 101 | 3.0 | 6.0 | 0.00 | 0.06 | 0.06 | 32 | 1007.4 |
| 20260502203624 | 53 | 100 | 2.0 | 5.0 | 0.00 | 0.06 | 0.06 | 31 | 1007.4 |
| 20260502203113 | 53 | 99 | 2.0 | 5.0 | 0.00 | 0.06 | 0.06 | 30 | 1007.4 |
| 20260502202607 | 54 | 99 | 3.0 | 10.0 | 0.00 | 0.06 | 0.06 | 31 | 1007.6 |
| 20260502202101 | 54 | 96 | 4.0 | 10.0 | 0.00 | 0.06 | 0.06 | 33 | 1007.6 |
| 20260502201556 | 54 | 95 | 5.0 | 10.0 | 0.00 | 0.06 | 0.06 | 29 | 1007.6 |
| 20260502201048 | 54 | 106 | 5.0 | 10.0 | 0.00 | 0.06 | 0.06 | 31 | 1008.0 |
| 20260502200542 | 55 | 103 | 4.0 | 9.0 | 0.00 | 0.06 | 0.06 | 31 | 1008.0 |
| 20260502200036 | 55 | 96 | 4.0 | 8.0 | 0.00 | 0.06 | 0.06 | 30 | 1008.0 |
| 20260502195531 | 55 | 143 | 3.0 | 10.0 | 0.00 | 0.06 | 0.06 | 30 | 1008.1 |
| 20260502195024 | 55 | 94 | 3.0 | 10.0 | 0.00 | 0.06 | 0.06 | 30 | 1008.1 |
| 20260502194518 | 54 | 103 | 4.0 | 11.0 | 0.00 | 0.06 | 0.06 | 32 | 1008.1 |
| 20260502194013 | 54 | 93 | 4.0 | 11.0 | 0.00 | 0.06 | 0.06 | 30 | 1008.5 |
| 20260502193507 | 54 | 104 | 4.0 | 14.0 | 0.00 | 0.06 | 0.06 | 32 | 1008.5 |
| 20260502193002 | 53 | 98 | 5.0 | 14.0 | 0.00 | 0.06 | 0.06 | 32 | 1008.5 |
| 20260502192500 | 53 | 72 | 5.0 | 12.0 | 0.00 | 0.06 | 0.06 | 31 | 1008.6 |
| 20260502192000 | 53 | 102 | 6.0 | 12.0 | 0.00 | 0.06 | 0.06 | 31 | 1008.6 |
| 20260502191458 | 53 | 68 | 6.0 | 12.0 | 0.00 | 0.06 | 0.06 | 31 | 1008.6 |
| 20260502190958 | 53 | 101 | 6.0 | 11.0 | 0.00 | 0.06 | 0.06 | 31 | 1008.9 |
| 20260502190459 | 53 | 106 | 6.0 | 10.0 | 0.00 | 0.06 | 0.06 | 30 | 1008.9 |
| 20260502185956 | 52 | 79 | 5.0 | 10.0 | 0.00 | 0.06 | 0.06 | 33 | 1008.9 |
| 20260502185457 | 52 | 79 | 5.0 | 12.0 | 0.00 | 0.06 | 0.06 | 34 | 1009.1 |
| 20260502185219 | 52 | 78 | 6.0 | 12.0 | 0.00 | 0.06 | 0.06 | 33 | 1009.1 |
| 20260502184718 | 52 | 79 | 6.0 | 12.0 | 0.00 | 0.06 | 0.06 | 32 | 1009.1 |
| 20260502183954 | 52 | 76 | 6.0 | 12.0 | 0.00 | 0.06 | 0.06 | 31 | 1009.4 |
| 20260502183457 | 52 | 64 | 5.0 | 10.0 | 0.00 | 0.06 | 0.06 | 32 | 1009.4 |
| 20260502182953 | 53 | 83 | 5.0 | 10.0 | 0.01 | 0.06 | 0.06 | 32 | 1009.6 |
| 20260502182453 | 53 | 79 | 4.0 | 10.0 | 0.01 | 0.06 | 0.06 | 34 | 1009.6 |
| 20260502181952 | 53 | 82 | 4.0 | 10.0 | 0.01 | 0.06 | 0.06 | 37 | 1009.6 |
| 20260502181452 | 53 | 112 | 6.0 | 11.0 | 0.01 | 0.06 | 0.06 | 35 | 1010.1 |
| 20260502180946 | 53 | 91 | 5.0 | 11.0 | 0.01 | 0.06 | 0.06 | 34 | 1010.1 |
| 20260502180655 | 53 | 103 | 5.0 | 11.0 | 0.01 | 0.06 | 0.06 | 35 | 1010.1 |
| 20260502170214 | 54 | 106 | 3.0 | 8.0 | 0.01 | 0.05 | 0.05 | 32 | 1010.6 |
| 20260502164136 | 54 | 104 | 4.0 | 11.0 | 0.01 | 0.05 | 0.05 | 31 | 1010.8 |
| 20260502163629 | 54 | 330 | 4.0 | 11.0 | 0.01 | 0.05 | 0.05 | 30 | 1010.8 |
| 20260502163124 | 53 | 343 | 3.0 | 10.0 | 0.00 | 0.04 | 0.04 | 27 | 1010.8 |
| 20260502162616 | 53 | 345 | 2.0 | 9.0 | 0.00 | 0.04 | 0.04 | 27 | 1011.2 |
| 20260502162338 | 53 | 233 | 3.0 | 9.0 | 0.00 | 0.04 | 0.04 | 29 | 1011.2 |
| 20260502161604 | 53 | 218 | 4.0 | 9.0 | 0.00 | 0.04 | 0.04 | 27 | 1011.2 |
| 20260502161059 | 53 | 226 | 3.0 | 9.0 | 0.00 | 0.04 | 0.04 | 32 | 1011.2 |
| 20260502160553 | 53 | 246 | 3.0 | 9.0 | 0.01 | 0.04 | 0.04 | 27 | 1011.2 |
| 20260502151452 | 52 | 339 | 3.0 | 10.0 | 0.01 | 0.04 | 0.04 | 30 | 1011.7 |
| 20260502150946 | 52 | 240 | 2.0 | 8.0 | 0.01 | 0.04 | 0.04 | 29 | 1011.7 |
| 20260502150441 | 52 | 262 | 2.0 | 7.0 | 0.00 | 0.03 | 0.03 | 34 | 1011.7 |
| 20260502130217 | 43 | 306 | 0.0 | 4.0 | 0.01 | 0.02 | 0.02 | 47 | 1012.3 |
| 20260502123141 | 40 | 332 | 1.0 | 8.0 | 0.01 | 0.01 | 0.01 | 50 | 1012.4 |
| 20260502122634 | 40 | 332 | 3.0 | 8.0 | 0.01 | 0.01 | 0.01 | 53 | 1012.5 |
| 20260502122129 | 40 | 334 | 5.0 | 8.0 | 0.01 | 0.01 | 0.01 | 52 | 1012.5 |
| 20260502121827 | 39 | 9 | 0.0 | 7.0 | 0.01 | 0.01 | 0.01 | 54 | 1012.5 |
| 20260502121717 | 39 | 339 | 3.0 | 8.0 | 0.01 | 0.01 | 0.01 | 52 | 1012.5 |
| 20260502120611 | 38 | 110 | 0.0 | 0.0 | 0.01 | 0.01 | 0.01 | 54 | 1012.5 |
| 20260502120105 | 38 | 110 | 0.0 | 0.0 | 0.01 | 0.01 | 0.01 | 57 | 1012.5 |
| 20260502115558 | 37 | 110 | 0.0 | 0.0 | 0.01 | 0.01 | 0.01 | 57 | 1012.5 |
| 20260502115053 | 37 | 106 | 0.0 | 0.0 | 0.01 | 0.01 | 0.01 | 56 | 1012.5 |
| 20260502114547 | 37 | 106 | 0.0 | 0.0 | 0.00 | 0.00 | 0.00 | 56 | 1012.5 |
| 20260502114304 | 36 | 106 | 0.0 | 0.0 | 0.00 | 0.00 | 0.00 | 54 | 1012.5 |
| 20260502113539 | 36 | 106 | 0.0 | 0.0 | 0.00 | 0.00 | 0.00 | 55 | 1012.5 |
| 20260502113028 | 35 | 106 | 0.0 | 0.0 | 0.00 | 0.00 | 0.00 | 55 | 1012.5 |
| 20260502112523 | 35 | 106 | 0.0 | 0.0 | 0.00 | 0.00 | 0.00 | 55 | 1012.4 |
| 20260502112017 | 35 | 106 | 0.0 | 0.0 | 0.00 | 0.00 | 0.00 | 55 | 1012.4 |
| 20260502111511 | 35 | 106 | 0.0 | 0.0 | 0.00 | 0.00 | 0.00 | 55 | 1012.4 |
| 20260502111005 | 35 | 106 | 0.0 | 0.0 | 0.00 | 0.00 | 0.00 | 56 | 1012.4 |
| 20260502110458 | 35 | 106 | 0.0 | 0.0 | 0.00 | 0.00 | 0.00 | 55 | 1012.4 |
| 20260502105953 | 35 | 106 | 0.0 | 0.0 | 0.00 | 0.00 | 0.00 | 55 | 1012.4 |
| 20260502105446 | 35 | 106 | 0.0 | 0.0 | 0.00 | 0.00 | 0.00 | 54 | 1012.4 |
| 20260502104941 | 35 | 106 | 0.0 | 0.0 | 0.00 | 0.00 | 0.00 | 54 | 1012.4 |
| 20260502104657 | 35 | 106 | 0.0 | 0.0 | 0.00 | 0.00 | 0.00 | 55 | 1012.5 |
| 20260502103927 | 35 | 106 | 0.0 | 0.0 | 0.00 | 0.00 | 0.00 | 55 | 1012.5 |
| 20260502103423 | 35 | 106 | 0.0 | 0.0 | 0.00 | 0.00 | 0.00 | 55 | 1012.5 |
| 20260502102916 | 35 | 106 | 0.0 | 0.0 | 0.00 | 0.00 | 0.00 | 56 | 1012.4 |
| 20260502102411 | 35 | 106 | 0.0 | 0.0 | 0.00 | 0.00 | 0.00 | 55 | 1012.4 |
| 20260502101905 | 35 | 106 | 0.0 | 0.0 | 0.00 | 0.00 | 0.00 | 56 | 1012.4 |
| 20260502101358 | 35 | 106 | 0.0 | 0.0 | 0.00 | 0.00 | 0.00 | 56 | 1012.6 |
| 20260502100853 | 34 | 106 | 0.0 | 0.0 | 0.00 | 0.00 | 0.00 | 56 | 1012.6 |
| 20260502100340 | 34 | 106 | 0.0 | 0.0 | 0.00 | 0.00 | 0.00 | 56 | 1012.6 |
| 20260502091142 | 35 | 106 | 0.0 | 0.0 | 0.00 | 0.00 | 0.00 | 57 | 1012.7 |
| 20260502090631 | 35 | 106 | 0.0 | 0.0 | 0.00 | 0.00 | 0.00 | 57 | 1012.7 |
| 20260502090117 | 35 | 106 | 0.0 | 0.0 | 0.00 | 0.00 | 0.00 | 57 | 1012.7 |
| 20260502070828 | 37 | 106 | 0.0 | 0.0 | 0.00 | 0.00 | 0.00 | 51 | 1013.2 |
| 20260502070322 | 37 | 106 | 0.0 | 0.0 | 0.00 | 0.00 | 0.00 | 51 | 1013.2 |
| 20260502065814 | 37 | 106 | 0.0 | 0.0 | 0.00 | 0.00 | 0.00 | 51 | 1013.3 |
| 20260502065310 | 37 | 106 | 0.0 | 0.0 | 0.00 | 0.00 | 0.00 | 51 | 1013.3 |
| 20260502064804 | 36 | 106 | 0.0 | 0.0 | 0.00 | 0.00 | 0.00 | 52 | 1013.3 |
| 20260502064259 | 36 | 106 | 0.0 | 0.0 | 0.00 | 0.00 | 0.00 | 53 | 1013.3 |
| 20260502063752 | 36 | 106 | 0.0 | 0.0 | 0.00 | 0.00 | 0.00 | 53 | 1013.3 |
| 20260502063247 | 36 | 105 | 0.0 | 0.0 | 0.00 | 0.00 | 0.00 | 56 | 1013.3 |
| 20260502062741 | 36 | 105 | 0.0 | 0.0 | 0.00 | 0.00 | 0.00 | 55 | 1013.3 |
| 20260502062234 | 35 | 105 | 0.0 | 0.0 | 0.00 | 0.00 | 0.00 | 55 | 1013.3 |
| 20260502061727 | 35 | 105 | 0.0 | 0.0 | 0.00 | 0.00 | 0.00 | 55 | 1013.3 |
| 20260502061222 | 35 | 105 | 0.0 | 0.0 | 0.00 | 0.00 | 0.00 | 56 | 1013.3 |
| 20260502061201 | 35 | 105 | 0.0 | 0.0 | 0.00 | 0.00 | 0.00 | 57 | 1013.3 |
| 20260502060211 | 35 | 105 | 0.0 | 0.0 | 0.00 | 0.00 | 0.00 | 57 | 1013.3 |
| 20260502055927 | 35 | 105 | 0.0 | 0.0 | 0.00 | 0.00 | 0.00 | 56 | 1013.3 |
| 20260502055426 | 35 | 105 | 0.0 | 0.0 | 0.00 | 0.00 | 0.00 | 57 | 1013.3 |
| 20260502054650 | 35 | 105 | 0.0 | 0.0 | 0.00 | 0.00 | 0.00 | 61 | 1013.3 |
| 20260502054145 | 35 | 105 | 0.0 | 0.0 | 0.00 | 0.00 | 0.00 | 59 | 1013.3 |
| 20260502053905 | 35 | 105 | 0.0 | 0.0 | 0.00 | 0.00 | 0.00 | 59 | 1013.3 |
| 20260502053135 | 35 | 105 | 0.0 | 0.0 | 0.00 | 0.00 | 0.00 | 62 | 1013.3 |
| 20260502052857 | 35 | 105 | 0.0 | 0.0 | 0.00 | 0.00 | 0.00 | 58 | 1013.5 |
| 20260502052430 | 35 | 105 | 0.0 | 0.0 | 0.00 | 0.00 | 0.00 | 60 | 1013.5 |
| 20260502052327 | 35 | 105 | 0.0 | 0.0 | 0.00 | 0.00 | 0.00 | 62 | 1013.5 |
| 20260502051110 | 35 | 105 | 0.0 | 0.0 | 0.00 | 0.00 | 0.00 | 60 | 1013.5 |
| 20260502050821 | 35 | 105 | 0.0 | 0.0 | 0.00 | 0.00 | 0.00 | 60 | 1013.5 |
| 20260502050317 | 35 | 105 | 0.0 | 0.0 | 0.00 | 0.00 | 0.00 | 65 | 1013.5 |
| 20260502045551 | 35 | 105 | 0.0 | 0.0 | 0.00 | 0.00 | 0.03 | 66 | 1013.6 |
| 20260502045039 | 35 | 105 | 0.0 | 0.0 | 0.00 | 0.00 | 0.03 | 68 | 1013.6 |
| 20260502044816 | 35 | 105 | 0.0 | 0.0 | 0.00 | 0.00 | 0.03 | 63 | 1013.6 |
| 20260502044517 | 34 | 105 | 0.0 | 0.0 | 0.00 | 0.00 | 0.03 | 62 | 1013.5 |
| 20260502043521 | 34 | 105 | 0.0 | 0.0 | 0.00 | 0.00 | 0.03 | 66 | 1013.5 |
| 20260502042508 | 34 | 105 | 0.0 | 0.0 | 0.00 | 0.00 | 0.03 | 62 | 1013.6 |
| 20260502042002 | 34 | 105 | 0.0 | 0.0 | 0.00 | 0.00 | 0.03 | 63 | 1013.6 |
| 20260502041454 | 34 | 105 | 0.0 | 0.0 | 0.00 | 0.00 | 0.03 | 66 | 1013.7 |
| 20260502040952 | 34 | 105 | 0.0 | 0.0 | 0.00 | 0.00 | 0.03 | 67 | 1013.7 |
| 20260502040446 | 34 | 105 | 0.0 | 0.0 | 0.00 | 0.00 | 0.03 | 69 | 1013.7 |
| 20260502035939 | 34 | 105 | 0.0 | 0.0 | 0.00 | 0.00 | 0.03 | 71 | 1013.7 |
| 20260502035434 | 35 | 105 | 0.0 | 0.0 | 0.00 | 0.00 | 0.03 | 72 | 1013.7 |
| 20260502035003 | 35 | 105 | 0.0 | 0.0 | 0.00 | 0.00 | 0.03 | 70 | 1013.7 |
| 20260502034421 | 35 | 105 | 0.0 | 0.0 | 0.00 | 0.00 | 0.03 | 68 | 1013.8 |
| 20260502033916 | 35 | 105 | 0.0 | 0.0 | 0.00 | 0.00 | 0.03 | 70 | 1013.8 |
| 20260502033410 | 35 | 105 | 0.0 | 0.0 | 0.00 | 0.00 | 0.03 | 70 | 1013.8 |
| 20260502032904 | 35 | 105 | 0.0 | 0.0 | 0.00 | 0.00 | 0.03 | 70 | 1013.7 |
| 20260502032354 | 35 | 105 | 0.0 | 0.0 | 0.00 | 0.00 | 0.03 | 70 | 1013.7 |
| 20260502031853 | 35 | 105 | 0.0 | 0.0 | 0.00 | 0.00 | 0.03 | 68 | 1013.7 |
| 20260502031346 | 35 | 105 | 0.0 | 0.0 | 0.00 | 0.00 | 0.03 | 66 | 1013.6 |
| 20260502030840 | 35 | 105 | 0.0 | 0.0 | 0.00 | 0.00 | 0.03 | 65 | 1013.6 |
| 20260502030334 | 35 | 105 | 0.0 | 0.0 | 0.00 | 0.00 | 0.03 | 66 | 1013.6 |
| 20260502025827 | 35 | 105 | 0.0 | 0.0 | 0.00 | 0.00 | 0.03 | 66 | 1013.7 |
| 20260502025551 | 35 | 105 | 0.0 | 0.0 | 0.00 | 0.00 | 0.03 | 65 | 1013.7 |
| 20260502024815 | 35 | 105 | 0.0 | 0.0 | 0.00 | 0.00 | 0.03 | 59 | 1013.7 |
| 20260502024404 | 36 | 105 | 0.0 | 0.0 | 0.00 | 0.00 | 0.03 | 59 | 1013.8 |
| 20260502023854 | 36 | 105 | 0.0 | 0.0 | 0.00 | 0.00 | 0.03 | 60 | 1013.8 |
| 20260502023254 | 36 | 105 | 0.0 | 0.0 | 0.00 | 0.00 | 0.03 | 60 | 1013.8 |
| 20260502022752 | 36 | 105 | 0.0 | 0.0 | 0.00 | 0.00 | 0.03 | 62 | 1013.8 |
| 20260502022245 | 36 | 105 | 0.0 | 0.0 | 0.00 | 0.00 | 0.03 | 59 | 1013.8 |
| 20260502021740 | 36 | 105 | 0.0 | 0.0 | 0.00 | 0.00 | 0.03 | 56 | 1013.8 |
| 20260502021234 | 36 | 105 | 0.0 | 0.0 | 0.00 | 0.00 | 0.03 | 57 | 1013.7 |
| 20260502020948 | 36 | 105 | 0.0 | 0.0 | 0.00 | 0.00 | 0.03 | 58 | 1013.7 |